M I D A S
Marine Information and Data Acquisition System
Tripno 2115 of the Zeeleeuw from 2011-06-06 06:29:49 to 2011-06-06 14:13:31
Back to CruiseResearch ActivitiesStationsMapUnderway DataData graphs

EquipmentUnitsComments
TimeDGPSUTC
LatitudeDGPSDM.mWGS84
LongitudeDGPSDM.mWGS84
SpeedMeteo Stationm/sRelative wind speed
DirectionMeteo StationdegRelative wind direction
TemperatureMeteo Stationdeg CelciusAir temperature
PressureMeteo StationPaAtmospheric pressure
HumidityMeteo Station%Relative humidity
Missing or incorrect values are displayed as -999
Metereological data collected by the RV Zeeleeuw from 2011-06-06 06:30:19 to 2011-06-06 14:23:41
Time Latitude Longitude Speed Direction Temperature Pressure Humidity
2011-06-06 06:31 51°13.635 2°56.019 -999 282 15 100260 44
2011-06-06 06:32 51°13.635 2°56.019 -999 282 15 100260 44
2011-06-06 06:33 51°13.633 2°56.018 -999 282 15 100260 44
2011-06-06 06:34 51°13.656 2°55.929 -999 282 15 100270 44
2011-06-06 06:35 51°13.683 2°55.814 -999 282 15 100270 44
2011-06-06 06:36 51°13.697 2°55.735 -999 282 15 100270 44
2011-06-06 06:37 51°13.698 2°55.737 -999 282 15 100270 44
2011-06-06 06:38 51°13.707 2°55.723 4 277 14.9 100270 43
2011-06-06 06:39 51°13.791 2°55.67 5.3 280 14.9 100270 44
2011-06-06 06:40 51°13.909 2°55.584 6.4 286 14.9 100270 44
2011-06-06 06:41 51°14.046 2°55.478 7.6 348 14.9 100270 43
2011-06-06 06:42 51°14.178 2°55.381 9.1 348 14.9 100260 43
2011-06-06 06:43 51°14.296 2°55.277 8 353 14.8 100260 43
2011-06-06 06:44 51°14.401 2°55.147 7.1 356 14.9 100260 43
2011-06-06 06:45 51°14.507 2°55.011 8.2 354 14.8 100260 44
2011-06-06 06:46 51°14.658 2°54.838 9.7 347 14.8 100250 43
2011-06-06 06:47 51°14.82 2°54.672 9.9 279 14.7 100250 44
2011-06-06 06:48 51°14.995 2°54.481 11 349 14.7 100240 44
2011-06-06 06:49 51°15.178 2°54.285 9.1 349 14.7 100250 43
2011-06-06 06:50 51°15.346 2°54.062 9.6 351 14.6 100260 43
2011-06-06 06:51 51°15.51 2°53.836 10.6 353 14.7 100240 44
2011-06-06 06:52 51°15.669 2°53.601 8.7 352 14.6 100250 43
2011-06-06 06:53 51°15.85 2°53.409 11.4 350 14.6 100250 44
2011-06-06 06:54 51°16.038 2°53.26 4.4 349 14.6 100250 43
2011-06-06 06:55 51°16.232 2°53.096 9.8 348 14.5 100260 43
2011-06-06 06:56 51°16.418 2°52.931 9.3 347 14.5 100250 43
2011-06-06 06:57 51°16.61 2°52.769 11.1 349 14.5 100240 44
2011-06-06 06:58 51°16.803 2°52.621 12.8 344 14.5 100260 43
2011-06-06 06:59 51°17.009 2°52.567 11.7 343 14.4 100250 43
2011-06-06 07:00 51°17.214 2°52.498 11 343 14.5 100260 44
2011-06-06 07:01 51°17.421 2°52.431 11.6 343 14.4 100250 43
2011-06-06 07:02 51°17.625 2°52.373 10.7 341 14.4 100260 43
2011-06-06 07:03 51°17.828 2°52.311 10.6 345 14.4 100260 42
2011-06-06 07:04 51°18.03 2°52.223 10 342 14.3 100250 43
2011-06-06 07:05 51°18.232 2°52.139 13 345 14.3 100260 43
2011-06-06 07:06 51°18.436 2°52.071 10.1 344 14.4 100260 44
2011-06-06 07:07 51°18.641 2°51.984 10.2 342 14.4 100260 44
2011-06-06 07:08 51°18.84 2°51.909 12.2 342 14.3 100260 43
2011-06-06 07:09 51°19.044 2°51.838 10 345 14.3 100260 42
2011-06-06 07:10 51°19.245 2°51.75 11.9 343 14.3 100260 44
2011-06-06 07:11 51°19.449 2°51.672 11.1 341 14.3 100270 43
2011-06-06 07:12 51°19.65 2°51.602 12 342 14.3 100250 44
2011-06-06 07:13 51°19.854 2°51.516 11 341 14.2 100270 43
2011-06-06 07:14 51°20.058 2°51.431 12 343 14.2 100260 43
2011-06-06 07:15 51°20.263 2°51.354 10.7 344 14.2 100260 43
2011-06-06 07:16 51°20.467 2°51.278 12.9 343 14.1 100250 44
2011-06-06 07:17 51°20.67 2°51.196 9.8 343 14.1 100260 43
2011-06-06 07:18 51°20.874 2°51.104 13.2 344 14.1 100260 43
2011-06-06 07:19 51°21.079 2°51.032 12.8 345 14.1 100260 43
2011-06-06 07:20 51°21.282 2°50.94 12 345 14.1 100260 42
2011-06-06 07:21 51°21.49 2°50.871 10.2 343 14.1 100260 43
2011-06-06 07:22 51°21.699 2°50.79 10.3 344 14 100270 43
2011-06-06 07:23 51°21.908 2°50.712 10 340 14.1 100270 43
2011-06-06 07:24 51°22.114 2°50.625 12.4 344 14.1 100280 42
2011-06-06 07:25 51°22.317 2°50.545 12.1 342 14 100280 43
2011-06-06 07:26 51°22.524 2°50.476 11.4 343 14 100270 43
2011-06-06 07:27 51°22.725 2°50.389 11 344 14 100270 43
2011-06-06 07:28 51°22.928 2°50.304 11.9 345 14 100270 42
2011-06-06 07:29 51°23.134 2°50.223 13 342 14 100270 42
2011-06-06 07:30 51°23.339 2°50.153 9.8 343 14 100270 43
2011-06-06 07:31 51°23.543 2°50.061 10.4 345 13.9 100270 43
2011-06-06 07:32 51°23.748 2°49.99 11.6 343 13.9 100270 43
2011-06-06 07:33 51°23.95 2°49.906 11.9 342 13.9 100270 43
2011-06-06 07:34 51°24.154 2°49.813 5.6 344 13.9 100260 43
2011-06-06 07:35 51°24.355 2°49.734 10.3 343 13.9 100280 43
2011-06-06 07:36 51°24.558 2°49.658 9.3 343 13.9 100270 43
2011-06-06 07:37 51°24.76 2°49.573 10.8 346 13.8 100270 42
2011-06-06 07:38 51°24.967 2°49.474 11.3 342 13.8 100270 43
2011-06-06 07:39 51°25.167 2°49.382 10.7 342 13.8 100280 42
2011-06-06 07:40 51°25.372 2°49.302 10.4 342 13.9 100270 43
2011-06-06 07:41 51°25.571 2°49.198 11.4 348 13.8 100290 43
2011-06-06 07:42 51°25.735 2°48.968 10.4 352 13.8 100280 43
2011-06-06 07:43 51°25.877 2°48.739 10.4 353 13.7 100280 43
2011-06-06 07:44 51°25.977 2°48.578 6.5 358 13.7 100290 43
2011-06-06 07:45 51°26.043 2°48.49 7.5 344 13.7 100280 42
2011-06-06 07:46 51°26.09 2°48.512 8.9 304 13.7 100290 43
2011-06-06 07:47 51°26.09 2°48.528 6 305 13.7 100290 43
2011-06-06 07:48 51°26.08 2°48.521 6.3 282 13.7 100290 42
2011-06-06 07:49 51°26.07 2°48.51 7 308 13.8 100300 43
2011-06-06 07:50 51°26.061 2°48.495 4.9 281 13.8 100300 43
2011-06-06 07:51 51°26.053 2°48.478 5.5 307 13.9 100300 43
2011-06-06 07:52 51°26.043 2°48.459 5.7 305 13.9 100300 42
2011-06-06 07:53 51°26.034 2°48.438 1.3 306 13.8 100300 42
2011-06-06 07:54 51°26.024 2°48.416 6.6 310 13.9 100310 44
2011-06-06 07:55 51°26.013 2°48.394 5.4 305 13.9 100320 44
2011-06-06 07:56 51°26.003 2°48.373 5.7 305 13.9 100310 44
2011-06-06 07:57 51°25.993 2°48.351 6 307 13.8 100310 44
2011-06-06 07:58 51°25.983 2°48.33 5.6 305 13.8 100310 43
2011-06-06 07:59 51°25.97 2°48.319 6.7 282 13.8 100310 43
2011-06-06 08:00 51°25.994 2°48.401 9.9 327 13.8 100300 43
2011-06-06 08:01 51°26.067 2°48.521 9.1 306 13.8 100300 43
2011-06-06 08:02 51°26.118 2°48.682 7.9 306 13.8 100290 42
2011-06-06 08:03 51°26.152 2°48.759 6.6 304 13.8 100300 43
2011-06-06 08:04 51°26.15 2°48.783 4.9 304 13.8 100310 42
2011-06-06 08:05 51°26.136 2°48.78 6.5 306 13.8 100310 43
2011-06-06 08:06 51°26.121 2°48.77 5.9 303 13.8 100320 42
2011-06-06 08:07 51°26.108 2°48.757 6.8 306 13.8 100320 42
2011-06-06 08:08 51°26.097 2°48.741 3.9 304 13.8 100320 42
2011-06-06 08:09 51°26.087 2°48.722 5.2 303 13.9 100320 44
2011-06-06 08:10 51°26.076 2°48.7 6.4 309 14 100310 42
2011-06-06 08:11 51°26.065 2°48.677 4.7 303 13.9 100320 42
2011-06-06 08:12 51°26.055 2°48.652 4.5 302 13.9 100320 44
2011-06-06 08:13 51°26.043 2°48.626 4 304 13.9 100320 43
2011-06-06 08:14 51°26.031 2°48.598 6 303 13.9 100320 42
2011-06-06 08:15 51°26.019 2°48.568 5.3 305 13.8 100320 44
2011-06-06 08:16 51°26.008 2°48.538 5.4 302 13.9 100320 43
2011-06-06 08:17 51°25.995 2°48.507 5.6 280 13.9 100330 42
2011-06-06 08:18 51°25.983 2°48.478 7 304 13.9 100330 44
2011-06-06 08:19 51°25.971 2°48.449 5.6 308 13.9 100320 42
2011-06-06 08:20 51°25.959 2°48.471 6.4 309 13.9 100310 43
2011-06-06 08:21 51°26.017 2°48.596 9.8 332 13.8 100310 42
2011-06-06 08:22 51°26.165 2°48.655 10.3 339 13.8 100300 43
2011-06-06 08:23 51°26.346 2°48.643 11 334 13.8 100310 43
2011-06-06 08:24 51°26.434 2°48.714 6.4 286 13.8 100300 42
2011-06-06 08:25 51°26.432 2°48.735 4.8 309 13.8 100320 42
2011-06-06 08:26 51°26.418 2°48.718 6.6 306 13.9 100330 44
2011-06-06 08:27 51°26.401 2°48.702 4.5 304 13.9 100330 42
2011-06-06 08:28 51°26.386 2°48.684 4.6 308 13.9 100330 44
2011-06-06 08:29 51°26.373 2°48.666 4.8 307 13.9 100330 42
2011-06-06 08:30 51°26.358 2°48.646 4.1 310 13.9 100330 43
2011-06-06 08:31 51°26.343 2°48.625 5.7 303 14 100330 42
2011-06-06 08:32 51°26.329 2°48.604 4.5 302 14 100320 44
2011-06-06 08:33 51°26.314 2°48.58 5.1 304 14 100320 44
2011-06-06 08:34 51°26.301 2°48.556 5 309 14 100330 44
2011-06-06 08:35 51°26.288 2°48.532 6.2 309 14 100330 42
2011-06-06 08:36 51°26.274 2°48.509 5 302 14 100330 42
2011-06-06 08:37 51°26.259 2°48.485 6.4 307 14 100330 44
2011-06-06 08:38 51°26.244 2°48.461 4.8 306 13.9 100330 42
2011-06-06 08:39 51°26.231 2°48.438 -999 306 14 100330 43
2011-06-06 08:40 51°26.217 2°48.414 -999 305 14 100320 43
2011-06-06 08:41 51°26.203 2°48.39 1.5 309 14 100330 44
2011-06-06 08:42 51°26.188 2°48.366 5.3 304 14 100340 44
2011-06-06 08:43 51°26.173 2°48.341 4.7 308 14 100330 42
2011-06-06 08:44 51°26.158 2°48.315 4.7 309 14 100330 42
2011-06-06 08:45 51°26.142 2°48.291 6.3 303 14 100330 43
2011-06-06 08:46 51°26.127 2°48.267 5.9 304 14 100330 42
2011-06-06 08:47 51°26.11 2°48.242 5.6 306 14 100330 42
2011-06-06 08:48 51°26.091 2°48.228 5.8 284 14 100330 40
2011-06-06 08:49 51°26.037 2°48.258 1.7 282 14 100330 43
2011-06-06 08:50 51°25.897 2°48.176 -999 11 13.9 100330 43
2011-06-06 08:51 51°25.804 2°47.885 2.5 357 13.9 100330 42
2011-06-06 08:52 51°25.699 2°47.548 2.6 357 13.9 100330 44
2011-06-06 08:53 51°25.586 2°47.215 4.7 356 13.9 100330 42
2011-06-06 08:54 51°25.474 2°46.878 2.2 353 13.9 100330 44
2011-06-06 08:55 51°25.364 2°46.541 4.3 359 13.9 100330 42
2011-06-06 08:56 51°25.25 2°46.203 3.1 356 13.9 100330 40
2011-06-06 08:57 51°25.138 2°45.864 3.7 358 13.9 100330 42
2011-06-06 08:58 51°25.022 2°45.528 5.6 358 13.9 100330 42
2011-06-06 08:59 51°24.911 2°45.189 4.5 358 13.9 100340 43
2011-06-06 09:00 51°24.802 2°44.846 4 353 13.8 100330 43
2011-06-06 09:01 51°24.688 2°44.504 4.8 1 13.8 100340 42
2011-06-06 09:02 51°24.575 2°44.168 0.3 360 13.8 100330 42
2011-06-06 09:03 51°24.458 2°43.829 3.2 359 13.8 100340 43
2011-06-06 09:04 51°24.341 2°43.484 -999 359 13.8 100340 40
2011-06-06 09:05 51°24.231 2°43.145 -999 4 13.8 100340 43
2011-06-06 09:06 51°24.121 2°42.8 -999 359 13.8 100340 43
2011-06-06 09:07 51°24.019 2°42.454 -999 359 13.7 100340 43
2011-06-06 09:08 51°23.937 2°42.095 -999 358 13.7 100330 42
2011-06-06 09:09 51°23.86 2°41.734 4.7 359 13.7 100340 43
2011-06-06 09:10 51°23.782 2°41.371 5.6 358 13.7 100340 42
2011-06-06 09:11 51°23.717 2°41.004 5.9 359 13.7 100330 42
2011-06-06 09:12 51°23.668 2°40.634 6 358 13.7 100330 40
2011-06-06 09:13 51°23.622 2°40.258 7.6 -999 13.6 100340 43
2011-06-06 09:14 51°23.57 2°39.896 7.4 359 13.6 100340 43
2011-06-06 09:15 51°23.529 2°39.557 5.8 356 13.6 100340 42
2011-06-06 09:16 51°23.517 2°39.24 6.9 359 13.6 100340 43
2011-06-06 09:17 51°23.507 2°38.946 6.9 358 13.6 100330 44
2011-06-06 09:18 51°23.494 2°38.676 5.7 2 13.5 100330 43
2011-06-06 09:19 51°23.475 2°38.412 6.7 3 13.5 100340 43
2011-06-06 09:20 51°23.457 2°38.151 5.5 6 13.5 100340 42
2011-06-06 09:21 51°23.436 2°37.891 5.9 4 13.5 100340 43
2011-06-06 09:22 51°23.411 2°37.644 5.6 7 13.5 100350 43
2011-06-06 09:23 51°23.386 2°37.42 6.4 1 13.5 100340 44
2011-06-06 09:24 51°23.37 2°37.203 5.9 3 13.4 100340 43
2011-06-06 09:25 51°23.355 2°36.988 6.4 2 13.4 100340 42
2011-06-06 09:26 51°23.338 2°36.774 6.2 4 13.4 100340 43
2011-06-06 09:27 51°23.317 2°36.56 5.7 7 13.3 100340 44
2011-06-06 09:28 51°23.292 2°36.339 4.6 7 13.3 100340 41
2011-06-06 09:29 51°23.23 2°36.111 5.6 14 13.3 100340 42
2011-06-06 09:30 51°23.092 2°35.912 0.6 14 13.3 100350 42
2011-06-06 09:31 51°22.896 2°35.714 1.8 7 13.3 100350 42
2011-06-06 09:32 51°22.687 2°35.537 0.1 360 13.3 100350 43
2011-06-06 09:33 51°22.467 2°35.385 1.4 5 13.3 100360 43
2011-06-06 09:34 51°22.248 2°35.231 0.1 10 13.3 100350 44
2011-06-06 09:35 51°22.02 2°35.105 -999 3 13.3 100350 43
2011-06-06 09:36 51°21.794 2°34.973 -999 -999 13.3 100360 41
2011-06-06 09:37 51°21.567 2°34.834 1.2 5 13.2 100360 42
2011-06-06 09:38 51°21.364 2°34.625 3.1 5 13.2 100350 44
2011-06-06 09:39 51°21.203 2°34.326 4.9 3 13.2 100350 44
2011-06-06 09:40 51°21.078 2°33.987 7.2 358 13.3 100340 44
2011-06-06 09:41 51°20.978 2°33.624 7.8 359 13.3 100340 44
2011-06-06 09:42 51°20.878 2°33.259 5.5 357 13.2 100340 43
2011-06-06 09:43 51°20.772 2°32.9 6.4 358 13.2 100340 42
2011-06-06 09:44 51°20.67 2°32.536 7.4 357 13.2 100340 41
2011-06-06 09:45 51°20.597 2°32.168 7.7 358 13.2 100340 43
2011-06-06 09:46 51°20.541 2°31.843 6.2 358 13.2 100350 44
2011-06-06 09:47 51°20.47 2°31.483 6.6 352 13.2 100340 43
2011-06-06 09:48 51°20.401 2°31.1 9.3 -999 13.2 100350 43
2011-06-06 09:49 51°20.339 2°30.717 9.7 358 13.3 100350 42
2011-06-06 09:49 51°30.182 2°32.367 -999 256 15 100250 44
2011-06-06 09:50 51°20.294 2°30.426 8.8 2 13.2 100350 42
2011-06-06 09:51 51°20.204 2°30.173 5 18 13.1 100350 44
2011-06-06 09:52 51°20.108 2°29.994 3.9 36 13.1 100360 43
2011-06-06 09:53 51°20.034 2°29.954 -999 267 13.2 100370 43
2011-06-06 09:54 51°20.033 2°29.999 -999 24 13.2 100370 43
2011-06-06 09:55 51°20.071 2°30.079 7.5 22 13.2 100350 43
2011-06-06 09:56 51°20.074 2°30.092 6.8 20 13.2 100360 43
2011-06-06 09:57 51°20.077 2°30.07 6.3 24 13.2 100350 43
2011-06-06 09:58 51°20.072 2°30.034 5.4 21 13.2 100360 43
2011-06-06 09:59 51°20.063 2°29.995 7.5 21 13.2 100360 44
2011-06-06 10:00 51°20.052 2°29.953 6.3 255 13.2 100350 44
2011-06-06 10:01 51°20.039 2°29.901 7.7 255 13.2 100360 43
2011-06-06 10:02 51°20.024 2°29.858 7.7 254 13.2 100360 42
2011-06-06 10:03 51°20.009 2°29.815 6 251 13.2 100360 43
2011-06-06 10:04 51°19.99 2°29.772 6.5 261 13.1 100360 44
2011-06-06 10:05 51°19.971 2°29.732 6 261 13.1 100370 42
2011-06-06 10:06 51°19.95 2°29.69 4.1 264 13.1 100360 42
2011-06-06 10:07 51°19.932 2°29.67 7.6 251 13.1 100360 44
2011-06-06 10:08 51°19.949 2°29.748 9.2 26 13.1 100340 44
2011-06-06 10:09 51°19.996 2°29.87 8.5 252 13.1 100340 42
2011-06-06 10:10 51°20 2°30.027 7.2 22 13.1 100350 42
2011-06-06 10:11 51°20.049 2°30.123 9.4 20 13.1 100340 43
2011-06-06 10:12 51°20.065 2°30.114 7 249 13.1 100360 42
2011-06-06 10:13 51°20.06 2°30.091 7.4 248 13 100350 44
2011-06-06 10:14 51°20.052 2°30.062 7.5 247 13 100350 43
2011-06-06 10:15 51°20.04 2°30.021 7.5 19 13 100350 44
2011-06-06 10:16 51°20.027 2°29.982 8.9 249 13 100350 44
2011-06-06 10:17 51°20.01 2°29.933 9.8 257 12.9 100350 43
2011-06-06 10:18 51°19.993 2°29.881 8 260 13 100360 43
2011-06-06 10:19 51°19.976 2°29.833 5.9 262 12.9 100360 44
2011-06-06 10:20 51°19.958 2°29.784 5.2 265 12.9 100360 44
2011-06-06 10:21 51°19.939 2°29.738 5.4 263 13 100360 43
2011-06-06 10:22 51°19.92 2°29.696 5.5 262 13 100360 43
2011-06-06 10:23 51°19.899 2°29.656 4.9 263 13 100360 42
2011-06-06 10:24 51°19.878 2°29.619 4.3 264 12.9 100370 43
2011-06-06 10:25 51°19.857 2°29.58 6.4 262 12.9 100360 44
2011-06-06 10:26 51°19.835 2°29.544 4.4 263 12.9 100360 44
2011-06-06 10:27 51°19.814 2°29.516 8.4 255 12.9 100360 44
2011-06-06 10:28 51°19.832 2°29.592 8.7 21 12.9 100340 43
2011-06-06 10:29 51°19.903 2°29.721 12.4 21 12.9 100330 44
2011-06-06 10:30 51°19.982 2°29.861 10.7 23 12.8 100320 42
2011-06-06 10:31 51°20.043 2°29.976 8.3 18 12.9 100330 43
2011-06-06 10:32 51°20.043 2°30.003 8.1 261 12.9 100350 42
2011-06-06 10:33 51°20.029 2°29.998 9.3 257 12.8 100360 43
2011-06-06 10:34 51°20.015 2°29.978 10.3 255 12.9 100350 43
2011-06-06 10:35 51°20 2°29.939 7.2 262 12.8 100350 44
2011-06-06 10:36 51°19.984 2°29.896 9.7 258 12.8 100350 42
2011-06-06 10:37 51°19.969 2°29.853 8.6 251 12.9 100360 42
2011-06-06 10:38 51°19.954 2°29.813 7.5 254 12.9 100350 43
2011-06-06 10:39 51°19.937 2°29.771 8.1 251 13 100360 44
2011-06-06 10:40 51°19.922 2°29.746 10.9 251 13 100340 43
2011-06-06 10:41 51°19.912 2°29.736 8.8 245 12.9 100350 43
2011-06-06 10:42 51°19.909 2°29.724 8.4 20 12.9 100340 43
2011-06-06 10:43 51°19.906 2°29.714 9.4 26 12.9 100340 43
2011-06-06 10:44 51°19.905 2°29.702 8.6 22 12.8 100340 43
2011-06-06 10:45 51°19.904 2°29.694 9 21 12.8 100350 43
2011-06-06 10:46 51°19.902 2°29.684 9.1 26 12.7 100320 43
2011-06-06 10:47 51°19.934 2°29.711 10 21 12.7 100340 43
2011-06-06 10:48 51°19.98 2°29.86 8.9 24 12.7 100350 41
2011-06-06 10:49 51°20.019 2°30.004 10.4 20 12.8 100340 42
2011-06-06 10:50 51°20.046 2°30.043 7.6 21 12.7 100330 43
2011-06-06 10:51 51°20.058 2°30.031 7.5 19 12.8 100340 43
2011-06-06 10:52 51°20.06 2°30.008 8.2 22 12.8 100350 44
2011-06-06 10:53 51°20.051 2°29.981 8.7 25 12.7 100340 43
2011-06-06 10:54 51°20.041 2°29.955 7.6 247 12.7 100350 43
2011-06-06 10:55 51°20.031 2°29.933 8.2 246 12.8 100350 44
2011-06-06 10:56 51°20.028 2°29.92 8.4 26 12.8 100350 41
2011-06-06 10:57 51°20.035 2°29.915 7.8 21 12.8 100350 43
2011-06-06 10:58 51°20.047 2°29.911 8 26 12.8 100340 44
2011-06-06 10:59 51°20.07 2°29.955 8.6 249 12.8 100340 42
2011-06-06 11:00 51°20.037 2°30.055 6.7 253 12.8 100370 43
2011-06-06 11:01 51°19.987 2°30.207 6.9 256 12.8 100370 42
2011-06-06 11:02 51°19.919 2°30.378 5.9 254 12.8 100360 42
2011-06-06 11:03 51°19.816 2°30.53 6.6 258 12.9 100370 44
2011-06-06 11:04 51°19.719 2°30.695 6.7 253 12.9 100360 41
2011-06-06 11:05 51°19.638 2°30.861 7.4 249 12.9 100360 43
2011-06-06 11:06 51°19.557 2°31.027 9 256 12.9 100360 43
2011-06-06 11:07 51°19.48 2°31.186 7.7 256 12.9 100360 43
2011-06-06 11:08 51°19.399 2°31.339 7.8 259 12.9 100360 44
2011-06-06 11:09 51°19.319 2°31.497 7.4 256 12.9 100360 42
2011-06-06 11:10 51°19.233 2°31.658 8.7 259 13 100360 44
2011-06-06 11:11 51°19.151 2°31.817 7.3 261 12.9 100360 42
2011-06-06 11:12 51°19.073 2°31.974 5.6 261 12.9 100370 41
2011-06-06 11:13 51°18.992 2°32.155 8.8 258 12.9 100350 44
2011-06-06 11:14 51°18.915 2°32.339 6.7 250 12.9 100350 43
2011-06-06 11:15 51°18.838 2°32.533 7.5 260 12.9 100350 43
2011-06-06 11:16 51°18.764 2°32.727 7.4 254 12.9 100350 43
2011-06-06 11:17 51°18.687 2°32.922 7.2 255 13 100360 44
2011-06-06 11:18 51°18.615 2°33.122 7.9 257 13 100350 44
2011-06-06 11:19 51°18.546 2°33.324 7.9 259 13 100350 42
2011-06-06 11:20 51°18.469 2°33.534 6.8 251 13.1 100350 41
2011-06-06 11:21 51°18.375 2°33.794 8 253 13 100340 42
2011-06-06 11:22 51°18.257 2°34.054 5.1 254 13 100350 44
2011-06-06 11:23 51°18.119 2°34.293 7.2 256 13 100350 43
2011-06-06 11:24 51°17.981 2°34.543 7.6 252 13 100350 43
2011-06-06 11:25 51°17.848 2°34.791 8.4 258 13 100360 42
2011-06-06 11:26 51°17.722 2°35.042 8.3 259 13 100350 43
2011-06-06 11:27 51°17.594 2°35.292 6.7 253 13 100360 43
2011-06-06 11:28 51°17.464 2°35.545 5.8 249 13.1 100350 41
2011-06-06 11:29 51°17.332 2°35.799 6 256 13.1 100360 44
2011-06-06 11:30 51°17.191 2°36.048 7.2 252 13.1 100350 44
2011-06-06 11:31 51°17.04 2°36.284 5.7 261 13.1 100360 44
2011-06-06 11:32 51°16.883 2°36.504 1.3 266 13 100350 42
2011-06-06 11:33 51°16.69 2°36.66 1.7 262 13 100360 44
2011-06-06 11:34 51°16.528 2°36.792 -999 259 13.1 100350 43
2011-06-06 11:35 51°16.513 2°36.872 9.1 23 13.2 100340 43
2011-06-06 11:36 51°16.538 2°36.868 4.3 332 13.1 100340 42
2011-06-06 11:37 51°16.568 2°36.779 9.7 342 13 100340 44
2011-06-06 11:38 51°16.604 2°36.722 9.8 21 13 100340 43
2011-06-06 11:39 51°16.619 2°36.765 10.9 24 12.9 100340 43
2011-06-06 11:40 51°16.639 2°36.83 9.8 24 13 100330 43
2011-06-06 11:41 51°16.646 2°36.851 8.8 26 13 100340 43
2011-06-06 11:42 51°16.625 2°36.831 8.7 21 13 100340 43
2011-06-06 11:43 51°16.598 2°36.803 8.9 252 13.1 100340 43
2011-06-06 11:44 51°16.569 2°36.772 8.4 261 13 100350 42
2011-06-06 11:45 51°16.539 2°36.74 5.9 267 13 100360 44
2011-06-06 11:46 51°16.51 2°36.708 5.3 264 13 100350 43
2011-06-06 11:47 51°16.482 2°36.676 7 260 13 100360 42
2011-06-06 11:48 51°16.453 2°36.646 5.7 263 13 100350 44
2011-06-06 11:49 51°16.426 2°36.617 10.8 257 13 100350 43
2011-06-06 11:50 51°16.398 2°36.588 8.4 261 12.9 100350 43
2011-06-06 11:51 51°16.371 2°36.558 6.8 260 12.9 100350 42
2011-06-06 11:52 51°16.343 2°36.532 9.3 257 13 100350 42
2011-06-06 11:53 51°16.316 2°36.506 8.3 260 13 100350 43
2011-06-06 11:54 51°16.29 2°36.48 8.5 257 12.9 100350 43
2011-06-06 11:55 51°16.263 2°36.455 8.7 258 13 100350 43
2011-06-06 11:56 51°16.248 2°36.463 10.1 25 13 100350 44
2011-06-06 11:57 51°16.296 2°36.506 10.8 319 12.9 100330 43
2011-06-06 11:58 51°16.381 2°36.551 13 320 13 100320 43
2011-06-06 11:59 51°16.476 2°36.601 12 323 12.9 100320 43
2011-06-06 12:00 51°16.57 2°36.655 11.6 317 12.8 100310 41
2011-06-06 12:01 51°16.659 2°36.723 10.5 22 12.8 100330 43
2011-06-06 12:02 51°16.689 2°36.851 10.5 256 12.9 100330 44
2011-06-06 12:03 51°16.656 2°36.912 7 260 12.9 100350 42
2011-06-06 12:04 51°16.627 2°36.919 9.7 258 12.9 100350 42
2011-06-06 12:05 51°16.602 2°36.912 9.2 256 12.9 100350 43
2011-06-06 12:06 51°16.577 2°36.898 7.8 248 12.9 100360 43
2011-06-06 12:07 51°16.552 2°36.881 8.1 254 12.9 100350 44
2011-06-06 12:08 51°16.526 2°36.86 7.7 254 12.8 100360 41
2011-06-06 12:09 51°16.5 2°36.838 7.4 252 13 100360 43
2011-06-06 12:10 51°16.472 2°36.815 7.5 253 13 100340 43
2011-06-06 12:11 51°16.444 2°36.792 9 259 13 100360 44
2011-06-06 12:12 51°16.419 2°36.768 7.5 255 12.9 100360 42
2011-06-06 12:13 51°16.393 2°36.748 7.7 20 13 100360 44
2011-06-06 12:14 51°16.4 2°36.771 9.7 323 13 100350 43
2011-06-06 12:15 51°16.45 2°36.728 11.2 337 12.9 100350 43
2011-06-06 12:16 51°16.518 2°36.707 11.3 25 12.9 100350 41
2011-06-06 12:17 51°16.57 2°36.779 10.5 21 12.8 100330 43
2011-06-06 12:18 51°16.626 2°36.818 11.2 319 12.8 100340 43
2011-06-06 12:19 51°16.666 2°36.825 8.8 27 12.8 100350 43
2011-06-06 12:20 51°16.662 2°36.83 10.9 25 12.8 100350 43
2011-06-06 12:21 51°16.648 2°36.836 8 247 12.8 100350 42
2011-06-06 12:22 51°16.63 2°36.838 10.7 21 12.8 100350 43
2011-06-06 12:23 51°16.612 2°36.838 8.3 22 12.8 100360 43
2011-06-06 12:24 51°16.593 2°36.836 8.5 26 12.8 100350 42
2011-06-06 12:25 51°16.574 2°36.834 8.3 247 12.8 100350 43
2011-06-06 12:26 51°16.554 2°36.831 8.3 19 12.7 100350 43
2011-06-06 12:27 51°16.534 2°36.83 11.2 252 12.9 100350 44
2011-06-06 12:28 51°16.516 2°36.828 7.9 25 12.8 100360 42
2011-06-06 12:29 51°16.497 2°36.826 7.9 247 12.8 100360 42
2011-06-06 12:30 51°16.478 2°36.828 8.5 250 12.8 100360 42
2011-06-06 12:31 51°16.461 2°36.83 9.8 252 12.9 100370 43
2011-06-06 12:32 51°16.444 2°36.834 8.9 19 12.8 100360 42
2011-06-06 12:33 51°16.425 2°36.836 9.1 244 12.7 100370 44
2011-06-06 12:34 51°16.406 2°36.834 8.5 23 12.7 100360 42
2011-06-06 12:35 51°16.392 2°36.839 9.8 25 12.7 100350 44
2011-06-06 12:36 51°16.436 2°36.818 12.3 342 12.6 100360 42
2011-06-06 12:37 51°16.523 2°36.712 11.6 336 12.6 100360 43
2011-06-06 12:38 51°16.604 2°36.719 9.7 26 12.6 100350 43
2011-06-06 12:39 51°16.629 2°36.796 10.1 22 12.6 100350 42
2011-06-06 12:40 51°16.629 2°36.823 9.1 26 12.5 100350 42
2011-06-06 12:41 51°16.619 2°36.835 9.5 20 12.6 100360 44
2011-06-06 12:42 51°16.603 2°36.837 9 21 12.6 100360 43
2011-06-06 12:43 51°16.581 2°36.834 11.2 21 12.6 100360 44
2011-06-06 12:44 51°16.556 2°36.828 8.1 251 12.6 100360 43
2011-06-06 12:45 51°16.532 2°36.822 9.2 253 12.7 100370 43
2011-06-06 12:46 51°16.508 2°36.818 12 251 12.7 100370 44
2011-06-06 12:47 51°16.484 2°36.814 8.8 251 12.7 100380 44
2011-06-06 12:48 51°16.462 2°36.812 8.4 250 12.6 100370 42
2011-06-06 12:49 51°16.464 2°36.917 9.8 26 12.6 100370 43
2011-06-06 12:50 51°16.518 2°37.116 11.3 26 12.7 100350 43
2011-06-06 12:51 51°16.575 2°37.369 11.3 27 12.6 100340 43
2011-06-06 12:52 51°16.588 2°37.571 12.5 27 12.6 100340 43
2011-06-06 12:53 51°16.586 2°37.65 8.8 256 12.6 100360 43
2011-06-06 12:54 51°16.569 2°37.666 7.9 255 12.6 100380 43
2011-06-06 12:55 51°16.55 2°37.672 9 18 12.7 100370 43
2011-06-06 12:56 51°16.53 2°37.674 8.8 245 12.7 100370 41
2011-06-06 12:57 51°16.509 2°37.672 9.9 256 12.7 100390 44
2011-06-06 12:58 51°16.488 2°37.669 10.9 257 12.7 100380 42
2011-06-06 12:59 51°16.466 2°37.667 9.2 254 12.7 100390 42
2011-06-06 13:00 51°16.446 2°37.665 10.5 257 12.8 100390 43
2011-06-06 13:01 51°16.424 2°37.664 8.9 259 12.8 100400 42
2011-06-06 13:02 51°16.403 2°37.663 7.6 259 12.7 100390 43
2011-06-06 13:03 51°16.382 2°37.664 9.6 258 12.6 100380 44
2011-06-06 13:04 51°16.362 2°37.665 6.3 263 12.7 100390 41
2011-06-06 13:05 51°16.341 2°37.669 9.7 256 12.7 100390 43
2011-06-06 13:06 51°16.322 2°37.675 10.6 258 12.7 100380 44
2011-06-06 13:07 51°16.302 2°37.682 7.4 260 12.6 100380 43
2011-06-06 13:08 51°16.289 2°37.72 8.3 22 12.6 100380 43
2011-06-06 13:09 51°16.343 2°37.753 11.8 335 12.5 100360 43
2011-06-06 13:10 51°16.435 2°37.701 10.5 334 12.5 100360 42
2011-06-06 13:11 51°16.541 2°37.626 13.9 338 12.4 100370 43
2011-06-06 13:12 51°16.611 2°37.56 11.4 330 12.4 100370 42
2011-06-06 13:13 51°16.639 2°37.578 11.2 20 12.3 100360 43
2011-06-06 13:14 51°16.631 2°37.603 8.9 250 12.3 100360 43
2011-06-06 13:15 51°16.62 2°37.623 9.6 247 12.5 100360 43
2011-06-06 13:16 51°16.604 2°37.637 8.2 250 12.5 100370 43
2011-06-06 13:17 51°16.585 2°37.646 9 249 12.5 100370 43
2011-06-06 13:18 51°16.567 2°37.65 9.2 258 12.6 100380 43
2011-06-06 13:19 51°16.548 2°37.654 6.6 262 12.6 100390 44
2011-06-06 13:20 51°16.529 2°37.659 8.9 260 12.5 100380 41
2011-06-06 13:21 51°16.511 2°37.665 8.2 260 12.4 100390 43
2011-06-06 13:22 51°16.493 2°37.674 10.4 259 12.4 100380 43
2011-06-06 13:23 51°16.486 2°37.778 10.3 243 12.4 100370 43
2011-06-06 13:24 51°16.46 2°38.049 8 247 12.3 100360 42
2011-06-06 13:25 51°16.369 2°38.37 6.6 20 12.3 100390 43
2011-06-06 13:26 51°16.266 2°38.7 7.9 25 12.4 100370 43
2011-06-06 13:27 51°16.163 2°39.019 9.4 252 12.3 100350 42
2011-06-06 13:28 51°16.049 2°39.334 8.7 254 12.3 100370 41
2011-06-06 13:29 51°15.943 2°39.65 7.1 22 12.4 100370 42
2011-06-06 13:30 51°15.837 2°39.952 9.9 245 12.4 100370 43
2011-06-06 13:31 51°15.741 2°40.269 6.8 252 12.4 100370 43
2011-06-06 13:32 51°15.641 2°40.584 9.2 249 12.4 100370 43
2011-06-06 13:33 51°15.541 2°40.898 8.3 254 12.4 100370 43
2011-06-06 13:34 51°15.449 2°41.225 7.8 20 12.4 100370 43
2011-06-06 13:35 51°15.382 2°41.565 10 245 12.4 100360 43
2011-06-06 13:36 51°15.323 2°41.914 8 20 12.4 100350 41
2011-06-06 13:37 51°15.263 2°42.267 10.7 253 12.4 100360 43
2011-06-06 13:38 51°15.213 2°42.622 9.6 248 12.5 100340 43
2011-06-06 13:39 51°15.169 2°42.979 10.7 249 12.5 100350 43
2011-06-06 13:40 51°15.123 2°43.336 9.5 21 12.5 100330 43
2011-06-06 13:41 51°15.111 2°43.702 9.7 25 12.5 100290 43
2011-06-06 13:42 51°15.118 2°44.059 11.4 23 12.6 100300 43
2011-06-06 13:43 51°15.107 2°44.426 12.1 25 12.6 100340 42
2011-06-06 13:44 51°15.081 2°44.79 9.6 24 12.6 100330 42
2011-06-06 13:45 51°15.061 2°45.155 10 22 12.6 100330 43
2011-06-06 13:46 51°15.043 2°45.524 10.2 26 12.6 100340 43
2011-06-06 13:47 51°15.023 2°45.881 9.5 23 12.6 100330 43
2011-06-06 13:48 51°14.998 2°46.245 8.6 20 12.6 100320 42
2011-06-06 13:49 51°14.961 2°46.602 7.6 252 12.6 100350 42
2011-06-06 13:50 51°14.869 2°46.936 7.1 257 12.6 100350 44
2011-06-06 13:51 51°14.775 2°47.267 9.1 252 12.6 100340 43
2011-06-06 13:52 51°14.752 2°47.628 11.5 27 12.7 100340 42
2011-06-06 13:53 51°14.773 2°47.999 10.7 26 12.7 100310 43
2011-06-06 13:54 51°14.789 2°48.369 12.4 21 12.6 100330 42
2011-06-06 13:55 51°14.802 2°48.741 10.7 26 12.6 100320 42
2011-06-06 13:56 51°14.805 2°49.113 10.7 22 12.6 100310 43
2011-06-06 13:57 51°14.808 2°49.486 10.9 25 12.7 100320 44
2011-06-06 13:58 51°14.812 2°49.855 11.5 26 12.7 100320 43
2011-06-06 13:59 51°14.809 2°50.214 9.1 22 12.7 100330 43
2011-06-06 14:00 51°14.813 2°50.577 9 26 12.7 100320 42
2011-06-06 14:01 51°14.816 2°50.942 12.1 23 12.8 100320 43
2011-06-06 14:02 51°14.817 2°51.304 11.7 21 12.8 100330 43
2011-06-06 14:03 51°14.823 2°51.666 10.6 21 12.8 100330 42
2011-06-06 14:04 51°14.826 2°52.032 9.7 19 12.8 100320 43
2011-06-06 14:05 51°14.83 2°52.404 10.3 23 12.8 100350 43
2011-06-06 14:06 51°14.836 2°52.771 10 27 12.8 100330 43
2011-06-06 14:07 51°14.841 2°53.141 11.6 23 12.8 100320 43
2011-06-06 14:08 51°14.844 2°53.505 10.5 247 12.8 100340 41
2011-06-06 14:09 51°14.839 2°53.878 11.3 25 12.9 100330 43
2011-06-06 14:10 51°14.825 2°54.247 7.5 250 12.9 100340 43
2011-06-06 14:11 51°14.745 2°54.588 8.3 256 12.9 100360 42
2011-06-06 14:12 51°14.615 2°54.872 5 259 12.9 100360 44
2011-06-06 14:13 51°14.446 2°55.078 0.1 265 12.9 100370 43
2011-06-06 14:14 51°14.289 2°55.242 -999 264 12.9 100370 43
2011-06-06 14:15 51°14.161 2°55.378 -999 25 13 100370 43
2011-06-06 14:16 51°14.033 2°55.482 -999 24 13 100370 42
2011-06-06 14:17 51°13.923 2°55.559 2.9 21 12.9 100380 44
2011-06-06 14:18 51°13.812 2°55.641 1.7 26 13.1 100390 42
2011-06-06 14:19 51°13.73 2°55.753 -999 28 13.2 100380 43
2011-06-06 14:20 51°13.677 2°55.87 -999 270 13.1 100390 43
2011-06-06 14:21 51°13.648 2°55.965 -999 258 12.9 100380 43
2011-06-06 14:22 51°13.636 2°56.017 3.4 263 12.8 100380 44
2011-06-06 14:23 51°13.636 2°56.018 3.5 27 12.8 100380 42